Regional Weather Roundup
Issued by NWS Midland/Odessa, TX

Skip options and go directly to product.
Home | Oldest Version | Previous Version | Current Version | All | Graphics & Text | Save Text | Print | Product List | Glossary On

Skip product version selection by date and time.   
474
ASUS44 KMAF 292010
RWRMAF
MIDLAND AREA WEATHER ROUNDUP
NATIONAL WEATHER SERVICE MIDLAND TX
300 PM CDT WED JUL 29 2015

...IN SOUTHWEST TEXAS AND SOUTHEAST NEW MEXICO...

CITY           SKY/WX    TMP DP  RH WIND       PRES   REMARKS
ALPINE         PTSUNNY   89  62  40 NE5       30.24F
ANDREWS        PTSUNNY   93  56  28 SE8       30.13F
ARTESIA        SUNNY     91  61  35 E12       30.16F
BIG SPRING     MOSUNNY   95  58  28 SE5       30.11F
CARLSBAD       SUNNY     95  62  33 N12G17    30.11F
DRYDEN           N/A     98  61  29 VRB7G17   30.04F
FORT STOCKTON  MOSUNNY   96  59  29 SE16      30.09F
GUAD PASS      SUNNY     81  62  52 NE29      30.28F
HOBBS          PTSUNNY   91  55  29 NE6G14    30.17F
MARFA          PTSUNNY   82  61  47 E12       30.23F
MIDLAND AIRPK  SUNNY     97  55  24 CALM      30.10F
MIDLAND INTL   MOSUNNY   97  57  26 S10G16    30.10F
ODESSA         PTSUNNY   96  56  26 E12       30.11F
PECOS          SUNNY     95  56  27 SE9       30.05F
PRESIDIO       MOCLDY    97  58  27 NW7       30.03F
SEMINOLE       SUNNY     93  57  29 SE8       30.15F
SNYDER         SUNNY     93  65  38 CALM      30.10F
WINK           MOSUNNY   97  54  23 SE14G21   30.07F
$$
...OTHER STATIONS IN TEXAS...

CITY           SKY/WX    TMP DP  RH WIND       PRES   REMARKS
ABILENE        SUNNY     98  64  32 SE10G16   30.05F HX 100
AMARILLO       SUNNY     85  68  56 N8        30.22F
AUSTIN         MOSUNNY   96  68  39 S8        30.01F HX 101
BROWNSVILLE    MOSUNNY   94  74  52 SE15      30.01F HX 104
CORPUS CHRISTI MOSUNNY   96  73  47 SE18      30.02F HX 105
DALLAS FTW     MOSUNNY   99  61  28 VRB7      30.01F
DEL RIO        SUNNY     99  65  32 SE13G24   29.98F HX 102
EL PASO        MOSUNNY   89  60  37 CALM      30.14F
HOUSTON INT    MOSUNNY   97  68  38 E5        30.01F HX 102
LUBBOCK        MOSUNNY   93  65  39 NE10      30.16F
SAN ANGELO     MOSUNNY   98  61  29 VRB7      30.04F
SAN ANTONIO    MOSUNNY   98  66  34 S12       30.02F HX 101
WACO           SUNNY     98  62  30 VRB5      30.02F
WICHITA FALLS  NOT AVBL
$$
...OTHER LOCATIONS IN NEW MEXICO...

CITY           SKY/WX    TMP DP  RH WIND       PRES   REMARKS
ALAMAGORDO     MOSUNNY   90  57  33 N6        30.18F
ALBUQUERQUE    PTSUNNY   83  54  36 N12       30.28F
CANNON AFB     SUNNY     84  62  47 E9        30.25F
CLOVIS         SUNNY     84  61  45 NE3       30.26F
HOLLOMAN AFB   MOSUNNY   89  56  32 S8        30.15F
ROSWELL        MOSUNNY   92  57  30 E7        30.17F
RUIDOSO          N/A    N/A N/A N/A MISG        N/A
SANTA FE       LGT RAIN  69  59  70 SE9       30.37F
TRUTH OR CONSE PTSUNNY   85  57  38 MISG      30.21F
TUCUMCARI      MOSUNNY   83  63  50 NE9       30.24F
$$

USA.gov is the U.S. government's official web portal to all federal, state and local government web resources and services.